TimeCDT,TemperatureF,Dew PointF,Humidity,Sea Level PressureIn,VisibilityMPH,Wind Direction,Wind SpeedMPH,Gust SpeedMPH,PrecipitationIn,Events,Conditions,WindDirDegrees,DateUTC
12:15 AM,34.7,32.0,90,30.38,10.0,Calm,Calm,-,N/A,,Clear,0,2013-05-24 05:15:00
12:35 AM,34.3,32.0,91,30.39,10.0,Calm,Calm,-,N/A,,Clear,0,2013-05-24 05:35:00
12:55 AM,33.6,31.8,93,30.39,10.0,Calm,Calm,-,N/A,,Clear,0,2013-05-24 05:55:00
1:15 AM,30.7,30.4,99,30.39,10.0,Calm,Calm,-,N/A,,Clear,0,2013-05-24 06:15:00
1:35 AM,31.1,30.6,98,30.39,10.0,Calm,Calm,-,N/A,,Clear,0,2013-05-24 06:35:00
1:55 AM,30.4,29.7,97,30.39,10.0,Calm,Calm,-,N/A,,Clear,0,2013-05-24 06:55:00
2:15 AM,30.4,29.7,97,30.39,10.0,Calm,Calm,-,N/A,,Clear,0,2013-05-24 07:15:00
2:35 AM,29.3,28.9,99,30.39,10.0,Calm,Calm,-,N/A,,Clear,0,2013-05-24 07:35:00
2:55 AM,29.8,29.7,99,30.40,7.0,Calm,Calm,-,N/A,,Clear,0,2013-05-24 07:55:00
3:15 AM,29.3,28.9,99,30.39,10.0,Calm,Calm,-,N/A,,Clear,0,2013-05-24 08:15:00
3:35 AM,29.3,28.9,99,30.39,10.0,Calm,Calm,-,N/A,,Clear,0,2013-05-24 08:35:00
3:55 AM,29.7,29.1,98,30.40,10.0,Calm,Calm,-,N/A,,Clear,0,2013-05-24 08:55:00
4:15 AM,28.8,28.6,99,30.40,10.0,Calm,Calm,-,N/A,,Clear,0,2013-05-24 09:15:00
4:35 AM,28.8,28.4,99,30.40,10.0,Calm,Calm,-,N/A,,Clear,0,2013-05-24 09:35:00
4:55 AM,29.1,28.9,99,30.40,10.0,Calm,Calm,-,N/A,,Clear,0,2013-05-24 09:55:00
5:15 AM,28.4,28.2,99,30.41,10.0,Calm,Calm,-,N/A,,Clear,0,2013-05-24 10:15:00
5:35 AM,27.9,27.5,99,30.41,10.0,Calm,Calm,-,N/A,,Clear,0,2013-05-24 10:35:00
5:55 AM,28.4,28.2,99,30.41,10.0,Calm,Calm,-,N/A,,Clear,0,2013-05-24 10:55:00
6:15 AM,29.3,29.1,99,30.41,10.0,Calm,Calm,-,N/A,,Clear,0,2013-05-24 11:15:00
6:35 AM,31.3,30.9,99,30.42,10.0,Calm,Calm,-,N/A,,Clear,0,2013-05-24 11:35:00
6:55 AM,33.3,32.2,96,30.42,10.0,Calm,Calm,-,N/A,,Clear,0,2013-05-24 11:55:00
7:15 AM,35.8,34.2,94,30.43,10.0,Calm,Calm,-,N/A,,Clear,0,2013-05-24 12:15:00
7:35 AM,37.9,34.5,87,30.44,10.0,Calm,Calm,-,N/A,,Clear,0,2013-05-24 12:35:00
7:55 AM,39.7,35.2,84,30.44,10.0,Calm,Calm,-,N/A,,Clear,0,2013-05-24 12:55:00
8:15 AM,42.3,34.7,75,30.43,10.0,Calm,Calm,-,N/A,,Clear,0,2013-05-24 13:15:00
8:35 AM,44.6,34.0,66,30.43,10.0,Calm,Calm,-,N/A,,Clear,0,2013-05-24 13:35:00
8:55 AM,46.8,35.4,65,30.43,10.0,Calm,Calm,-,N/A,,Clear,0,2013-05-24 13:55:00
9:15 AM,48.2,35.1,60,30.43,10.0,Calm,Calm,-,N/A,,Clear,0,2013-05-24 14:15:00
9:35 AM,50.9,34.0,52,30.41,10.0,Calm,Calm,-,N/A,,Clear,0,2013-05-24 14:35:00
9:55 AM,52.0,35.8,54,30.41,10.0,NE,4.6,-,N/A,,Clear,50,2013-05-24 14:55:00
10:15 AM,52.0,35.2,53,30.39,10.0,East,3.5,-,N/A,,Clear,100,2013-05-24 15:15:00
10:35 AM,52.9,35.8,52,30.39,10.0,ENE,5.8,-,N/A,,Clear,60,2013-05-24 15:35:00
10:55 AM,53.8,36.3,52,30.39,10.0,NE,5.8,-,N/A,,Clear,50,2013-05-24 15:55:00
11:15 AM,54.1,35.8,50,30.38,10.0,NE,5.8,-,N/A,,Clear,40,2013-05-24 16:15:00
11:35 AM,55.8,36.3,48,30.38,10.0,ENE,6.9,-,N/A,,Clear,60,2013-05-24 16:35:00
11:55 AM,55.0,35.2,47,30.37,10.0,NE,6.9,-,N/A,,Clear,50,2013-05-24 16:55:00
12:15 PM,55.8,35.6,47,30.37,10.0,ENE,8.1,-,N/A,,Clear,60,2013-05-24 17:15:00
12:35 PM,56.1,35.2,45,30.35,10.0,NE,9.2,-,N/A,,Clear,50,2013-05-24 17:35:00
12:55 PM,58.1,36.1,44,30.34,10.0,ENE,8.1,-,N/A,,Clear,60,2013-05-24 17:55:00
1:15 PM,58.3,36.3,44,30.34,10.0,ENE,8.1,-,N/A,,Clear,60,2013-05-24 18:15:00
1:35 PM,57.6,35.4,43,30.33,10.0,East,10.4,-,N/A,,Clear,80,2013-05-24 18:35:00
1:55 PM,57.0,36.3,46,30.32,10.0,NE,9.2,-,N/A,,Clear,50,2013-05-24 18:55:00
2:15 PM,54.5,34.7,47,30.32,10.0,NE,9.2,-,N/A,,Clear,50,2013-05-24 19:15:00
2:35 PM,54.5,34.9,48,30.31,10.0,NE,9.2,-,N/A,,Clear,50,2013-05-24 19:35:00
2:55 PM,52.5,34.5,50,30.30,10.0,ENE,9.2,-,N/A,,Clear,60,2013-05-24 19:55:00
3:15 PM,51.6,34.3,52,30.29,10.0,NE,11.5,-,N/A,,Clear,50,2013-05-24 20:15:00
3:35 PM,52.0,34.3,51,30.29,10.0,ENE,9.2,-,N/A,,Clear,60,2013-05-24 20:35:00
3:55 PM,53.2,34.9,50,30.28,10.0,East,10.4,-,N/A,,Clear,80,2013-05-24 20:55:00
4:15 PM,53.2,34.9,50,30.28,10.0,ENE,9.2,-,N/A,,Clear,70,2013-05-24 21:15:00
4:35 PM,53.6,34.2,48,30.28,10.0,ENE,8.1,-,N/A,,Clear,60,2013-05-24 21:35:00
4:55 PM,52.5,34.0,49,30.28,10.0,ENE,8.1,-,N/A,,Clear,60,2013-05-24 21:55:00
5:15 PM,52.3,34.2,50,30.29,10.0,North,5.8,-,N/A,,Clear,10,2013-05-24 22:15:00
5:35 PM,52.2,33.6,49,30.29,10.0,NE,5.8,-,N/A,,Clear,50,2013-05-24 22:35:00
5:55 PM,50.9,33.6,52,30.29,10.0,NE,4.6,-,N/A,,Clear,50,2013-05-24 22:55:00
6:15 PM,53.1,33.8,48,30.29,10.0,NE,4.6,-,N/A,,Clear,50,2013-05-24 23:15:00
6:35 PM,51.3,34.0,52,30.28,10.0,NE,4.6,-,N/A,,Clear,40,2013-05-24 23:35:00
6:55 PM,49.8,34.0,55,30.28,10.0,Calm,Calm,-,N/A,,Clear,0,2013-05-24 23:55:00
7:15 PM,47.3,34.0,60,30.28,10.0,ENE,3.5,-,N/A,,Clear,60,2013-05-25 00:15:00
7:35 PM,47.3,34.0,60,30.28,10.0,NNE,3.5,-,N/A,,Clear,30,2013-05-25 00:35:00
7:55 PM,44.6,34.3,67,30.28,10.0,North,4.6,-,N/A,,Clear,360,2013-05-25 00:55:00
8:15 PM,43.0,34.2,71,30.26,10.0,NNE,3.5,-,N/A,,Clear,30,2013-05-25 01:15:00
8:35 PM,42.4,34.0,72,30.26,10.0,NNE,4.6,-,N/A,,Clear,20,2013-05-25 01:35:00
8:55 PM,42.3,33.1,70,30.27,10.0,NNE,5.8,-,N/A,,Clear,30,2013-05-25 01:55:00
9:15 PM,41.9,32.9,70,30.28,10.0,NE,5.8,-,N/A,,Clear,50,2013-05-25 02:15:00
9:35 PM,41.0,32.9,73,30.28,10.0,NE,4.6,-,N/A,,Clear,50,2013-05-25 02:35:00
9:55 PM,40.6,32.9,74,30.29,10.0,Calm,Calm,-,N/A,,Clear,0,2013-05-25 02:55:00
10:15 PM,41.0,32.9,73,30.29,10.0,ENE,3.5,-,N/A,,Clear,70,2013-05-25 03:15:00
10:35 PM,41.2,33.3,73,30.30,10.0,ENE,4.6,-,N/A,,Clear,70,2013-05-25 03:35:00
10:55 PM,41.4,34.0,75,30.29,10.0,East,4.6,-,N/A,,Clear,90,2013-05-25 03:55:00
11:15 PM,41.9,34.3,75,30.30,10.0,Calm,Calm,-,N/A,,Clear,0,2013-05-25 04:15:00
11:35 PM,41.9,34.5,75,30.30,10.0,NE,5.8,-,N/A,,Clear,50,2013-05-25 04:35:00
11:55 PM,41.9,34.9,76,30.30,10.0,ENE,6.9,-,N/A,,Clear,60,2013-05-25 04:55:00